Flag for U.S.A. Weather past 2 weeks in Pasco, Washington, U.S.A.

Now
57 °F

Passing clouds.


Feels Like: 52 °F
Forecast: 45 / 58 °F
Wind: 24 mph from Southwest

Location: Tri-Cities Airport

Current Time: Dec 21, 2014 at 1:32:54 AM

Latest Report: Dec 21, 2014 at 12:53 AM


Visibility: 10 mi

Pressure: 29.52 "Hg

Humidity: 78%

Dew point: 50 °F

Location of PascoLocation

Historic Weather in Pasco — Graph

°F

Pasco temperature yesterday

Maximum temperature yesterday: 55 °F (at 11:53 PM)
Minimum temperature yesterday: 38 °F (at 12:53 AM)
Average temperature yesterday: 45 °F

Past Weeks' High & Low Weather Summary

 TemperatureHumidityPressure
High63 °F (Dec 11, 4:53 PM)100% (Dec 6, 12:53 AM)30.36 "Hg (Dec 6, 12:53 AM)
Low25 °F (Dec 14, 3:53 AM)48% (Dec 11, 4:53 PM)29.31 "Hg (Dec 11, 3:53 PM)
Average40 °F93%29.99 "Hg
* Reported Dec 5 11:53 PM — Dec 20 11:53 PM, Pasco, Weather by CustomWeather, © 2014

Note: Actual official high and low records may vary slightly from our data, if they occured in-between our weather recording intervals... More about our weather records

Advertising

Pasco weather history for previous 24 hours

 ConditionsComfort  
Time TempWeatherWind HumidityBarometerVisibility
11:53 PM
Dec 20
55 °FPassing clouds.24 mph83%29.54 "Hg10 mi
10:53 PM53 °FClear.12 mph83%29.53 "Hg10 mi
9:53 PM51 °FPassing clouds.16 mph86%29.57 "Hg10 mi
8:53 PM51 °FPartly cloudy.17 mph86%29.58 "Hg10 mi
7:53 PM52 °FOvercast.12 mph80%29.57 "Hg10 mi
6:53 PM52 °FMostly cloudy.10 mph75%29.60 "Hg10 mi
5:53 PM51 °FLight rain. Overcast.7 mph77%29.62 "Hg10 mi
4:53 PM49 °FMostly cloudy.10 mph86%29.64 "Hg10 mi
3:53 PM49 °FOvercast.12 mph90%29.68 "Hg10 mi
2:53 PM49 °FLight rain. Overcast.8 mph90%29.69 "Hg10 mi
1:53 PM46 °FLight rain. Overcast.3 mph100%29.71 "Hg10 mi
12:53 PM46 °FLight rain. Overcast.No wind100%29.72 "Hg10 mi
11:53 AM45 °FOvercast.No wind100%29.76 "Hg10 mi
10:53 AM44 °FMore clouds than sun.No wind96%29.78 "Hg10 mi
9:53 AM41 °FOvercast.3 mph100%29.80 "Hg10 mi
8:53 AM40 °FLight rain. Mostly cloudy.No wind100%29.82 "Hg9 mi
7:53 AM39 °FLight rain. Overcast.5 mph100%29.83 "Hg10 mi
6:53 AM39 °FMostly cloudy.3 mph100%29.85 "Hg10 mi
5:53 AM39 °FLight rain. Overcast.3 mph100%29.87 "Hg10 mi
4:53 AM39 °FLight rain. Overcast.No wind96%29.90 "Hg10 mi
3:53 AM39 °FLight rain. Mostly cloudy.No wind96%29.92 "Hg10 mi
2:53 AM39 °FMostly cloudy.5 mph96%29.95 "Hg10 mi
1:53 AM39 °FMostly cloudy.7 mph96%29.95 "Hg10 mi
Weather by CustomWeather, © 2014

See weather overviewHow to use our weather pages